[[{"header":{"parameterUnit":"m.s-1","parameterCategory":2,"la1":30.2991,"la2":30.254,"lo1":-89.0895,"lo2":-89.0444,"dy":0.0017,"dx":0.0017,"nx":28,"ny":28,"refTime":"2024-06-28T21:00:00:Z","depth":"0","parameterNumber":2,"parameterNumberName":"U-component_of_CURRENTS"},"data":[0,0,0,0,0,0,0,0,0,0,0,0,0,0,0,0,0,0,0,0,0,0,0,0,0,0,0,0,0,0,0,0,0,0,0,0,0,0,0,0,0,0,0,0,0,0,0,0,0,0,0,0,0,0,0,0,0,0,0.254,0.254,0,0.2555,0.2555,0.2555,0.2567,0.2567,0.2567,0.2568,0.261,0.2611,0.2612,0,0,0,0,0,0,0,0,0,0,0,0,0,0.2535,0.2535,0.254,0.254,0.2541,0.2555,0.2555,0.2555,0.2567,0.2567,0.2568,0.2568,0.261,0.2611,0.2612,0,0,0,0,0,0,0,0,0,0,0,0,0,0.2541,0.2535,0.254,0.2549,0.255,0.2555,0.2555,0.2555,0.2567,0.2567,0.2568,0.2568,0.2609,0.2611,0.2612,0.2616,0,0,0.2617,0.2617,0,0,0,0,0,0,0,0,0.2541,0.2542,0.2547,0.2548,0.2549,0.256,0.2568,0.2577,0.2567,0.256,0.2568,0.2568,0.2596,0.2599,0.26,0.2618,0.262,0.2617,0.2618,0.2618,0.2619,0,0,0,0,0,0,0,0.254,0.2541,0.2545,0.2548,0.2549,0.2556,0.2557,0.257,0.2576,0.2561,0.2562,0.2564,0.2597,0.2598,0.2601,0.262,0.2617,0.2618,0.2619,0.2619,0.2715,0.2716,0,0,0,0,0,0,0.2539,0.254,0.2545,0.2546,0.2546,0.2556,0.2557,0.2556,0.2576,0.2579,0.2564,0.2564,0.2596,0.2599,0.2602,0.2669,0.2618,0.262,0.262,0.2713,0.2715,0.2717,0,0,0,0,0,0,0.2538,0.2539,0.2544,0.2544,0.2545,0.2556,0.2554,0.2556,0.2558,0.2578,0.2582,0.2564,0.2596,0.26,0.2628,0.2669,0.262,0.2622,0.2711,0.2714,0.2716,0.2764,0,0,0,0,0,0,0.2538,0.2539,0.2538,0.2544,0.2545,0.2552,0.2554,0.2556,0.2559,0.2561,0.258,0.2584,0.2596,0.2626,0.2629,0.267,0.2623,0.2709,0.2712,0.2715,0.276,0.2768,0.2774,0,0,0,0,0,0.2538,0.2538,0.2537,0.2538,0.2544,0.2552,0.2554,0.2561,0.2559,0.2563,0.2583,0.2583,0.2649,0.2628,0.2632,0.2674,0.2707,0.2711,0.2715,0.2757,0.2766,0.2774,0,0,0,0,0,0,0.2531,0.254,0.2539,0.254,0.2547,0.2554,0.2559,0.2559,0.2576,0.258,0.2594,0.26,0.2647,0.2647,0.2624,0.2712,0.2682,0.2687,0.2713,0.2722,0.2729,0.2715,0.2624,0,0,0,0,0,0.2529,0.2536,0.254,0.2542,0.2545,0.2549,0.2553,0.2559,0.2573,0.2579,0.2593,0.262,0.2665,0.268,0.271,0.2743,0.2781,0.2776,0.2783,0.2789,0.2782,0.2884,0.29,0.2729,0.2729,0.2729,0,0,0.2526,0.2533,0.2535,0.2542,0.2547,0.2558,0.2553,0.2561,0.2577,0.2582,0.2608,0.2642,0.268,0.2732,0.2753,0.2736,0.2864,0.2794,0.2799,0.2788,0.289,0.2906,0.2921,0.2732,0.2731,0.2731,0,0,0.2529,0.2529,0.2536,0.2544,0.2556,0.2564,0.2565,0.2574,0.2585,0.2611,0.264,0.2691,0.2727,0.2777,0.2806,0.2864,0.29,0.2879,0.29,0.3,0.3015,0.3029,0.3124,0.3146,0.288,0.288,0.288,0,0.2527,0.2533,0.2539,0.2551,0.2562,0.2566,0.2579,0.2592,0.2611,0.2638,0.2626,0.2733,0.2754,0.2852,0.2872,0.2881,0.294,0.2865,0.301,0.3024,0.3037,0.3132,0.3155,0.2883,0.2882,0.2882,0.2882,0,0.2538,0.2542,0.2548,0.2568,0.2581,0.2592,0.2612,0.2637,0.265,0.2671,0.2754,0.2794,0.2865,0.2887,0.2891,0.3004,0.302,0.3012,0.2988,0.3058,0.3153,0.3176,0.2887,0.2886,0.2885,0.2884,0,0,0.2539,0.2553,0.2554,0.2566,0.2591,0.2605,0.2647,0.2692,0.2735,0.2766,0.2837,0.2907,0.2936,0.297,0.3004,0.3068,0.3212,0.3071,0.3075,0.3164,0.3446,0.3499,0.3529,0.3238,0.3241,0.3244,0.3485,0,0.2546,0.2564,0.2575,0.26,0.2613,0.2645,0.2685,0.2732,0.2774,0.2843,0.291,0.2982,0.2969,0.3018,0.3089,0.3182,0.3271,0.3147,0.3365,0.3372,0.341,0.3557,0.3401,0.3606,0.3508,0.3512,0.3514,0,0.2557,0.2568,0.2586,0.2625,0.2635,0.2655,0.2738,0.2772,0.2872,0.2912,0.3003,0.3055,0.3175,0.3141,0.3351,0.3277,0.3365,0.3423,0.3434,0.3476,0.3468,0.3516,0.3651,0.3429,0.355,0.3547,0.3545,0,0.256,0.2582,0.2596,0.2606,0.265,0.2679,0.271,0.2794,0.2847,0.296,0.303,0.3163,0.3255,0.3377,0.3502,0.3446,0.3727,0.3675,0.3812,0.3816,0.372,0.371,0.3659,0.3836,0.3835,0.3834,0.3834,0,0.2569,0.2585,0.2594,0.2604,0.2639,0.2671,0.2733,0.2788,0.2892,0.298,0.3063,0.3184,0.3317,0.3487,0.3571,0.3792,0.3809,0.3856,0.39,0.3736,0.3725,0.3554,0.3446,0.3843,0.3841,0.384,0.3838,0,0.2577,0.2579,0.2599,0.2629,0.2636,0.2662,0.2731,0.2792,0.2881,0.3011,0.3059,0.3246,0.3472,0.3622,0.3846,0.3909,0.3969,0.415,0.395,0.3967,0.3867,0.3769,0.3779,0.3684,0.4349,0.4353,0.4355,0,0.2585,0.259,0.2605,0.2614,0.2623,0.2659,0.2696,0.2776,0.2851,0.306,0.314,0.3385,0.3563,0.3923,0.4084,0.4303,0.4092,0.4269,0.4129,0.388,0.3803,0.3656,0.3561,0.4026,0.4026,0.4026,0.4025,0,0.261,0.2608,0.2625,0.2634,0.2655,0.2683,0.2742,0.2798,0.2924,0.305,0.3255,0.3408,0.3754,0.3908,0.4189,0.4302,0.4015,0.4274,0.4056,0.36,0.3394,0.3315,0.3841,0.4023,0.4023,0.4023,0.4023,0.4024,0.2638,0.2655,0.2671,0.2695,0.2698,0.2726,0.2749,0.2837,0.2957,0.3103,0.3268,0.3395,0.3614,0.4002,0.4121,0.4087,0.4088,0.3928,0.3854,0.3748,0.3565,0.4108,0.4312,0.4314,0.4315,0.4317,0.4318,0,0.2717,0.2734,0.2737,0.2758,0.2764,0.2759,0.2805,0.2812,0.2934,0.3021,0.3165,0.325,0.3401,0.3545,0.3665,0.36,0.3489,0.3476,0.3137,0.3086,0.3598,0.3484,0.3466,0.3466,0.3466,0.3467,0.3467,0.3467,0.2767,0.2811,0.282,0.2843,0.2835,0.2794,0.281,0.279,0.2799,0.2781,0.2751,0.2839,0.2966,0.3066,0.3019,0.3017,0.2744,0.2711,0.2687,0.2897,0.2927,0.2956,0.2818,0.2661,0.266,0.2044,0.2039,0.2035]},{"header":{"parameterUnit":"m.s-1","parameterCategory":2,"la1":30.2991,"la2":30.254,"lo1":-89.0895,"lo2":-89.0444,"dy":0.0017,"dx":0.0017,"nx":28,"ny":28,"refTime":"2024-06-28T21:00:00:Z","depth":"0","parameterNumber":3,"parameterNumberName":"V-component_of_CURRENTS"},"data":[0,0,0,0,0,0,0,0,0,0,0,0,0,0,0,0,0,0,0,0,0,0,0,0,0,0,0,0,0,0,0,0,0,0,0,0,0,0,0,0,0,0,0,0,0,0,0,0,0,0,0,0,0,0,0,0,0,0,-0.0548,-0.0548,0,-0.052,-0.0519,-0.0519,-0.0555,-0.0557,-0.0558,-0.056,-0.0597,-0.0597,-0.0597,0,0,0,0,0,0,0,0,0,0,0,0,0,-0.058,-0.0579,-0.0548,-0.0548,-0.0548,-0.052,-0.0519,-0.0519,-0.0555,-0.0557,-0.0559,-0.056,-0.0597,-0.0597,-0.0597,0,0,0,0,0,0,0,0,0,0,0,0,0,-0.0559,-0.0579,-0.0549,-0.0563,-0.0564,-0.052,-0.0519,-0.0519,-0.0555,-0.0557,-0.0559,-0.0561,-0.0598,-0.0597,-0.0597,-0.0551,0,0,-0.0595,-0.0595,0,0,0,0,0,0,0,0,-0.0561,-0.0558,-0.0561,-0.0562,-0.0563,-0.0544,-0.0544,-0.0533,-0.0554,-0.0557,-0.056,-0.0562,-0.0585,-0.0585,-0.0573,-0.0553,-0.0555,-0.0595,-0.0595,-0.0595,-0.0595,0,0,0,0,0,0,0,-0.0562,-0.0559,-0.0536,-0.0561,-0.0562,-0.0553,-0.0552,-0.0542,-0.056,-0.0557,-0.056,-0.0558,-0.0586,-0.0573,-0.0574,-0.0555,-0.0595,-0.0595,-0.0594,-0.0594,-0.0557,-0.0556,0,0,0,0,0,0,-0.0568,-0.0561,-0.0537,-0.0535,-0.0568,-0.0551,-0.055,-0.0547,-0.0559,-0.0562,-0.0556,-0.056,-0.0573,-0.0575,-0.0576,-0.0544,-0.0595,-0.0594,-0.0594,-0.0558,-0.0557,-0.0556,0,0,0,0,0,0,-0.0568,-0.0566,-0.0538,-0.0548,-0.0544,-0.0548,-0.0544,-0.0546,-0.0536,-0.0557,-0.0562,-0.0545,-0.0575,-0.0577,-0.0567,-0.0545,-0.0594,-0.0594,-0.0559,-0.0558,-0.0557,-0.0466,0,0,0,0,0,0,-0.0569,-0.0566,-0.0557,-0.0549,-0.0544,-0.0502,-0.0542,-0.0544,-0.0531,-0.0536,-0.0549,-0.0555,-0.0577,-0.0567,-0.0566,-0.0545,-0.0593,-0.056,-0.0558,-0.0557,-0.047,-0.0462,-0.0456,0,0,0,0,0,-0.057,-0.0551,-0.0557,-0.0553,-0.0534,-0.0501,-0.0496,-0.0506,-0.0529,-0.0508,-0.0528,-0.0555,-0.0559,-0.0565,-0.0565,-0.0543,-0.056,-0.0559,-0.0557,-0.0473,-0.0464,-0.0456,0,0,0,0,0,0,-0.0554,-0.0552,-0.0559,-0.0539,-0.0517,-0.0507,-0.0489,-0.0495,-0.049,-0.05,-0.0531,-0.0536,-0.0524,-0.0543,-0.055,-0.0532,-0.0569,-0.0567,-0.0506,-0.0497,-0.049,-0.0483,-0.0593,0,0,0,0,0,-0.0545,-0.0534,-0.0524,-0.0503,-0.0494,-0.0488,-0.0475,-0.0477,-0.0475,-0.0475,-0.0484,-0.0502,-0.0512,-0.0514,-0.0521,-0.0495,-0.0536,-0.0488,-0.0481,-0.0474,-0.047,-0.0532,-0.053,-0.0551,-0.0551,-0.0551,0,0,-0.0528,-0.0528,-0.0519,-0.0498,-0.0486,-0.0446,-0.0485,-0.0456,-0.0426,-0.0479,-0.0443,-0.047,-0.0501,-0.0483,-0.048,-0.0498,-0.0483,-0.0472,-0.0466,-0.0466,-0.053,-0.0528,-0.0526,-0.055,-0.055,-0.055,0,0,-0.0484,-0.0491,-0.0463,-0.0442,-0.0421,-0.0411,-0.04,-0.0381,-0.0381,-0.0345,-0.039,-0.0405,-0.0395,-0.0422,-0.0436,-0.039,-0.0443,-0.0395,-0.0346,-0.0405,-0.0404,-0.0404,-0.0423,-0.0426,-0.039,-0.039,-0.039,0,-0.0464,-0.043,-0.0444,-0.0407,-0.0382,-0.0391,-0.0341,-0.0329,-0.0307,-0.0308,-0.0325,-0.0345,-0.0368,-0.0375,-0.0362,-0.0372,-0.0406,-0.0373,-0.0396,-0.0396,-0.0398,-0.0419,-0.0422,-0.0385,-0.0386,-0.0386,-0.0387,0,-0.0393,-0.0364,-0.0342,-0.0303,-0.0275,-0.0233,-0.0221,-0.0196,-0.02,-0.0203,-0.0207,-0.0243,-0.0265,-0.0273,-0.0298,-0.0316,-0.0335,-0.038,-0.0416,-0.039,-0.0413,-0.0419,-0.0379,-0.038,-0.0382,-0.0383,0,0,-0.0349,-0.0304,-0.0292,-0.026,-0.0219,-0.0185,-0.014,-0.0108,-0.0089,-0.0093,-0.0083,-0.0111,-0.0157,-0.0177,-0.0223,-0.0266,-0.0292,-0.0317,-0.0322,-0.0332,-0.0397,-0.0323,-0.0323,-0.0347,-0.0348,-0.0349,-0.0399,0,-0.0284,-0.0206,-0.0197,-0.0106,-0.0062,-0.0059,-0.0011,0.0008,0.0004,0.0014,-0.0052,-0.0058,-0.0114,-0.0128,-0.0182,-0.0266,-0.0307,-0.0272,-0.0425,-0.0429,-0.0364,-0.0327,-0.0236,-0.0266,-0.0405,-0.0406,-0.0407,0,-0.0206,-0.0169,-0.008,-0.0017,0.0003,0.0054,0.0105,0.0143,0.0133,0.0121,0.008,0.0031,-0.0023,-0.0083,-0.0215,-0.0192,-0.0284,-0.0354,-0.0359,-0.0328,-0.0366,-0.0322,-0.0271,-0.0415,-0.0416,-0.0415,-0.0414,0,-0.0159,-0.008,-0.0012,0.0014,0.0083,0.0117,0.0152,0.0169,0.0196,0.0174,0.018,0.0097,0.0067,-0.0067,-0.0184,-0.0215,-0.0325,-0.0395,-0.0413,-0.0409,-0.0378,-0.0368,-0.0482,-0.05,-0.05,-0.05,-0.05,0,-0.0087,-0.0029,0.0013,0.0056,0.0137,0.0161,0.0232,0.0249,0.0265,0.0305,0.0226,0.0239,0.0064,-0.001,-0.0152,-0.0263,-0.0305,-0.0387,-0.0416,-0.0338,-0.0325,-0.0488,-0.0561,-0.0502,-0.0501,-0.0501,-0.0501,0,-0.0033,-0.0005,0.0076,0.0142,0.0165,0.0221,0.029,0.0336,0.034,0.0387,0.0386,0.0338,0.0265,0.0116,-0.007,-0.0193,-0.0366,-0.0366,-0.0229,-0.024,-0.0392,-0.0461,-0.0567,-0.0585,-0.0405,-0.0404,-0.0402,0,0.0008,0.0053,0.0132,0.0178,0.0211,0.0281,0.0337,0.0368,0.0416,0.0461,0.0493,0.0456,0.0469,0.0262,0.0064,-0.0127,-0.0285,-0.0208,-0.0258,-0.0365,-0.0467,-0.0522,-0.0534,-0.0181,-0.0178,-0.0176,-0.0174,0,0.0086,0.0107,0.0167,0.0253,0.0318,0.0389,0.0463,0.0518,0.0569,0.0638,0.0717,0.0739,0.0589,0.0473,0.0236,0.0084,-0.0239,-0.0163,-0.0336,-0.0331,-0.0342,-0.0382,-0.0168,-0.0152,-0.0154,-0.0156,-0.0157,-0.0158,0.0144,0.0195,0.027,0.0356,0.0423,0.0513,0.0608,0.069,0.0817,0.0974,0.0943,0.105,0.0817,0.0538,0.0316,-0.0041,-0.0086,-0.0184,-0.0267,-0.0321,-0.0309,-0.0008,0.0013,0.0011,0.001,0.0009,0.0009,0,0.0242,0.0295,0.0372,0.049,0.0587,0.0595,0.072,0.0836,0.1031,0.1164,0.1294,0.1274,0.1016,0.0652,0.0169,-0.0115,-0.0225,-0.0287,-0.0386,-0.0402,-0.0192,-0.0154,-0.0093,-0.0093,-0.0093,-0.0093,-0.0093,-0.0092,0.0303,0.0408,0.0447,0.0632,0.071,0.0862,0.0954,0.1105,0.1234,0.1453,0.1555,0.1608,0.1315,0.0425,-0.02,-0.0339,-0.0543,-0.0545,-0.0692,-0.0605,-0.0604,-0.0603,-0.0589,-0.0619,-0.062,-0.0837,-0.0839,-0.0841]}],[{"header":{"parameterUnit":"m.s-1","parameterCategory":2,"la1":30.2991,"la2":30.254,"lo1":-89.0895,"lo2":-89.0444,"dy":0.0017,"dx":0.0017,"nx":28,"ny":28,"refTime":"2024-06-28T21:00:00:Z","depth":"2","parameterNumber":2,"parameterNumberName":"U-component_of_CURRENTS"},"data":[0,0,0,0,0,0,0,0,0,0,0,0,0,0,0,0,0,0,0,0,0,0,0,0,0,0,0,0,0,0,0,0,0,0,0,0,0,0,0,0,0,0,0,0,0,0,0,0,0,0,0,0,0,0,0,0,0,0,0.2396,0.2397,0,0.244,0.244,0.2441,0.2426,0.2425,0.2424,0.2423,0.2536,0.254,0.2544,0,0,0,0,0,0,0,0,0,0,0,0,0,0.2348,0.2349,0.2396,0.2397,0.2397,0.244,0.244,0.2441,0.2426,0.2425,0.2424,0.2423,0.2535,0.254,0.2544,0,0,0,0,0,0,0,0,0,0,0,0,0,0.2377,0.2349,0.2396,0.2396,0.2396,0.2439,0.244,0.2441,0.2426,0.2425,0.2423,0.2422,0.2534,0.2539,0.2545,0.2608,0,0,0.2563,0.2565,0,0,0,0,0,0,0,0,0.2375,0.2379,0.2395,0.2396,0.2396,0.2426,0.2465,0.25,0.2426,0.2414,0.2423,0.2421,0.2508,0.2515,0.2525,0.2613,0.2618,0.2563,0.2567,0.2569,0.2571,0,0,0,0,0,0,0,0.2373,0.2377,0.2413,0.2396,0.2397,0.2409,0.2412,0.2471,0.2469,0.2415,0.2414,0.242,0.2508,0.2519,0.2527,0.2619,0.2563,0.2568,0.2572,0.2574,0.2843,0.2847,0,0,0,0,0,0,0.2368,0.2375,0.2411,0.2414,0.2383,0.2411,0.2414,0.2418,0.2466,0.2472,0.2422,0.242,0.251,0.2521,0.2531,0.2608,0.2569,0.2574,0.2578,0.284,0.2844,0.2848,0,0,0,0,0,0,0.2367,0.2371,0.241,0.2396,0.2402,0.2413,0.2418,0.2419,0.2411,0.2471,0.2477,0.241,0.2509,0.2523,0.26,0.2613,0.2577,0.2582,0.2835,0.2841,0.2846,0.2763,0,0,0,0,0,0,0.2366,0.237,0.2363,0.2396,0.2403,0.2424,0.2419,0.2421,0.2419,0.2416,0.2464,0.2474,0.2509,0.2591,0.2605,0.262,0.2587,0.2831,0.2838,0.2844,0.2761,0.2765,0.2769,0,0,0,0,0,0.2364,0.2359,0.2362,0.2366,0.2394,0.2424,0.2428,0.2432,0.2419,0.2418,0.2472,0.2471,0.2646,0.2598,0.2614,0.263,0.2827,0.2836,0.2844,0.276,0.2764,0.2768,0,0,0,0,0,0,0.2327,0.2359,0.2362,0.2365,0.2387,0.2421,0.2417,0.2424,0.2461,0.2457,0.2507,0.2523,0.2599,0.2648,0.2594,0.2742,0.2742,0.2754,0.2673,0.2678,0.2681,0.2735,0.2592,0,0,0,0,0,0.2319,0.2324,0.2359,0.2357,0.2366,0.2389,0.2396,0.2402,0.2444,0.2454,0.2492,0.2565,0.2653,0.2685,0.2761,0.2831,0.2905,0.2865,0.2869,0.287,0.2934,0.3064,0.3083,0.2875,0.2875,0.2875,0,0,0.23,0.2321,0.232,0.235,0.2363,0.2387,0.2388,0.2396,0.2425,0.2467,0.251,0.2571,0.268,0.276,0.2799,0.2793,0.2959,0.2881,0.2881,0.2946,0.3074,0.3094,0.3112,0.2881,0.288,0.2879,0,0,0.228,0.2287,0.2288,0.2312,0.2337,0.2365,0.2363,0.2394,0.2411,0.2466,0.2526,0.2623,0.2697,0.281,0.2873,0.2961,0.2975,0.2951,0.3,0.3121,0.3138,0.3155,0.3207,0.3229,0.2947,0.2947,0.2947,0,0.2253,0.2272,0.2292,0.2309,0.2333,0.2354,0.2374,0.2406,0.2458,0.251,0.2471,0.2681,0.2748,0.2923,0.2953,0.2968,0.3004,0.2947,0.312,0.3139,0.3157,0.3207,0.3233,0.2944,0.2944,0.2945,0.2945,0,0.225,0.2262,0.2264,0.2302,0.2329,0.2346,0.2402,0.2432,0.2448,0.2503,0.2637,0.274,0.2884,0.2902,0.295,0.3125,0.3092,0.3097,0.3087,0.3172,0.322,0.3247,0.294,0.2941,0.2942,0.2942,0,0,0.2205,0.2252,0.2254,0.2275,0.233,0.2355,0.2418,0.2509,0.2573,0.2625,0.2731,0.2899,0.2954,0.3042,0.3108,0.3216,0.3342,0.32,0.3207,0.3214,0.3547,0.3326,0.3335,0.3338,0.3344,0.3349,0.35,0,0.2198,0.2229,0.2264,0.2301,0.2326,0.2385,0.2452,0.2539,0.2608,0.271,0.2853,0.2969,0.3004,0.3059,0.3186,0.3317,0.3424,0.3299,0.3503,0.3511,0.3274,0.3365,0.2991,0.3078,0.3528,0.3532,0.3536,0,0.2197,0.2223,0.2253,0.2326,0.2343,0.2367,0.2493,0.2553,0.2721,0.2777,0.293,0.3025,0.3241,0.322,0.3512,0.3409,0.3505,0.3581,0.3588,0.3454,0.3345,0.3089,0.3112,0.3583,0.3579,0.3575,0.3572,0,0.2181,0.2224,0.225,0.227,0.2351,0.2381,0.2426,0.2572,0.2651,0.2821,0.2892,0.3133,0.3237,0.3427,0.3595,0.3557,0.386,0.3826,0.3729,0.3711,0.3482,0.3433,0.4061,0.4061,0.406,0.406,0.4059,0,0.2187,0.2206,0.223,0.2246,0.2286,0.2347,0.2423,0.2507,0.2652,0.2769,0.292,0.3056,0.3293,0.348,0.3628,0.3747,0.3898,0.3782,0.3763,0.3432,0.3379,0.3908,0.3888,0.4065,0.4064,0.4063,0.4062,0,0.2177,0.2195,0.2219,0.2267,0.2276,0.2297,0.2378,0.2455,0.2574,0.2726,0.2781,0.3026,0.3252,0.3462,0.3756,0.3748,0.3911,0.392,0.347,0.3395,0.3668,0.3643,0.383,0.3824,0.3819,0.3815,0.3811,0,0.218,0.2186,0.2205,0.221,0.2218,0.2249,0.2291,0.24,0.2482,0.2719,0.2797,0.3037,0.3164,0.344,0.3475,0.3619,0.3871,0.3376,0.3267,0.3696,0.366,0.3642,0.3625,0.2919,0.2909,0.29,0.2893,0,0.2179,0.2171,0.2187,0.22,0.221,0.2238,0.2288,0.2335,0.249,0.2567,0.2725,0.2821,0.2993,0.2933,0.3051,0.3117,0.3305,0.3198,0.3835,0.3001,0.2841,0.2802,0.2816,0.2817,0.2824,0.283,0.2834,0.2837,0.2165,0.2174,0.219,0.2203,0.2218,0.2239,0.22,0.2251,0.2304,0.2378,0.2547,0.2558,0.2573,0.254,0.2547,0.2578,0.2802,0.2752,0.2779,0.2816,0.2649,0.2485,0.2361,0.2366,0.237,0.2374,0.2377,0,0.2178,0.2198,0.2205,0.2218,0.2214,0.224,0.222,0.214,0.209,0.2176,0.2183,0.1999,0.1908,0.2079,0.1895,0.1858,0.1859,0.1914,0.1895,0.1966,0.2031,0.1828,0.1322,0.132,0.1319,0.1317,0,0,0.2194,0.2207,0.2219,0.2214,0.2222,0.2112,0.2055,0.1915,0.1862,0.1762,0.1723,0.1798,0.1894,0.1565,0.1493,0.14,0.1702,0.136,0.2178,0.222,0.2284,0.2455,0.2213,0,0,0,0,0]},{"header":{"parameterUnit":"m.s-1","parameterCategory":2,"la1":30.2991,"la2":30.254,"lo1":-89.0895,"lo2":-89.0444,"dy":0.0017,"dx":0.0017,"nx":28,"ny":28,"refTime":"2024-06-28T21:00:00:Z","depth":"2","parameterNumber":3,"parameterNumberName":"V-component_of_CURRENTS"},"data":[0,0,0,0,0,0,0,0,0,0,0,0,0,0,0,0,0,0,0,0,0,0,0,0,0,0,0,0,0,0,0,0,0,0,0,0,0,0,0,0,0,0,0,0,0,0,0,0,0,0,0,0,0,0,0,0,0,0,0.0795,0.0794,0,0.0753,0.0752,0.0752,0.0675,0.0673,0.0672,0.0671,0.0555,0.0553,0.0551,0,0,0,0,0,0,0,0,0,0,0,0,0,0.0792,0.0793,0.0795,0.0794,0.0794,0.0753,0.0752,0.0752,0.0675,0.0673,0.0672,0.067,0.0555,0.0553,0.0551,0,0,0,0,0,0,0,0,0,0,0,0,0,0.0776,0.0793,0.0795,0.0751,0.0746,0.0753,0.0752,0.0752,0.0675,0.0673,0.0671,0.0669,0.0556,0.0554,0.0551,0.0578,0,0,0.0543,0.0542,0,0,0,0,0,0,0,0,0.0777,0.0776,0.0758,0.0754,0.0749,0.0717,0.0709,0.069,0.0676,0.0702,0.067,0.0668,0.0604,0.0598,0.0595,0.0573,0.0568,0.0543,0.0541,0.054,0.0539,0,0,0,0,0,0,0,0.0778,0.0777,0.0778,0.0757,0.0752,0.0728,0.0723,0.0705,0.0664,0.07,0.0694,0.0691,0.0601,0.0598,0.0591,0.0566,0.0543,0.0541,0.0539,0.0538,0.0536,0.0538,0,0,0,0,0,0,0.0788,0.0779,0.0779,0.0776,0.0758,0.073,0.0724,0.0729,0.0666,0.0655,0.0693,0.0687,0.0603,0.0595,0.0587,0.0584,0.054,0.0538,0.0536,0.0535,0.0537,0.0538,0,0,0,0,0,0,0.0788,0.0789,0.0781,0.0776,0.0773,0.0732,0.0738,0.073,0.0708,0.0661,0.0648,0.0678,0.0601,0.0591,0.0574,0.058,0.0537,0.0534,0.0533,0.0535,0.0538,0.0598,0,0,0,0,0,0,0.0788,0.0789,0.0793,0.0777,0.0774,0.0785,0.074,0.073,0.0711,0.0703,0.0645,0.0633,0.0599,0.0578,0.0571,0.0576,0.0532,0.0531,0.0534,0.0537,0.0595,0.0603,0.0609,0,0,0,0,0,0.0788,0.0802,0.0794,0.0793,0.0782,0.0786,0.0782,0.0744,0.0712,0.0715,0.0679,0.0634,0.0591,0.0578,0.0569,0.0573,0.053,0.0533,0.0537,0.0591,0.0601,0.0609,0,0,0,0,0,0,0.0796,0.0795,0.0785,0.0796,0.0792,0.0773,0.0768,0.0746,0.0721,0.0704,0.0654,0.0642,0.0634,0.0603,0.059,0.0584,0.0553,0.0555,0.0597,0.0606,0.0613,0.0635,0.053,0,0,0,0,0,0.0805,0.0816,0.081,0.0818,0.0818,0.0794,0.0787,0.0766,0.0744,0.0729,0.0691,0.0658,0.0648,0.0624,0.0612,0.0604,0.0571,0.0603,0.0611,0.0617,0.0632,0.0598,0.0603,0.055,0.0549,0.0549,0,0,0.0809,0.081,0.0814,0.0821,0.0811,0.0825,0.0784,0.0777,0.0783,0.0722,0.0711,0.0687,0.0657,0.0655,0.0646,0.0621,0.0613,0.0621,0.0627,0.0638,0.0602,0.0607,0.0611,0.0552,0.0551,0.0551,0,0,0.0824,0.0826,0.0838,0.0846,0.0841,0.0837,0.0837,0.0819,0.0803,0.0798,0.0765,0.0756,0.0713,0.071,0.0699,0.0744,0.0664,0.0721,0.0758,0.0725,0.0729,0.0732,0.0684,0.0682,0.0711,0.0711,0.0711,0,0.082,0.0846,0.0842,0.0859,0.0871,0.0847,0.0867,0.0861,0.0838,0.0843,0.0798,0.0781,0.075,0.0771,0.0778,0.0761,0.0712,0.0722,0.0733,0.0735,0.0737,0.0688,0.0685,0.0714,0.0714,0.0713,0.0713,0,0.085,0.087,0.0879,0.0901,0.0916,0.093,0.0932,0.0936,0.0909,0.0902,0.0907,0.0873,0.0859,0.0849,0.0817,0.0826,0.0776,0.0754,0.0706,0.0746,0.0692,0.0687,0.0719,0.0718,0.0717,0.0716,0,0,0.0829,0.0888,0.0888,0.0917,0.0941,0.0958,0.0986,0.1013,0.1033,0.1,0.1021,0.1002,0.097,0.0959,0.0921,0.0889,0.0853,0.0815,0.0811,0.0761,0.0748,0.0684,0.0672,0.0808,0.0808,0.0808,0.07,0,0.0845,0.09,0.0925,0.0979,0.1011,0.1027,0.1062,0.1084,0.1082,0.1098,0.1072,0.1067,0.1014,0.099,0.096,0.0892,0.0846,0.0883,0.0725,0.0721,0.0652,0.0668,0.0604,0.05,0.0696,0.0695,0.0694,0,0.0858,0.0899,0.0956,0.1039,0.1053,0.1076,0.1139,0.1167,0.1196,0.119,0.1185,0.1152,0.1129,0.1059,0.0958,0.0969,0.0863,0.0798,0.0792,0.0711,0.0649,0.0495,0.0485,0.0687,0.0687,0.0688,0.0688,0,0.0852,0.0923,0.0974,0.0998,0.1078,0.11,0.1134,0.1181,0.1216,0.123,0.124,0.1214,0.1173,0.1073,0.0936,0.0926,0.0805,0.0778,0.0625,0.0618,0.0529,0.0514,0.0692,0.0692,0.0692,0.0693,0.0693,0,0.0868,0.0906,0.0967,0.0995,0.1052,0.1102,0.1155,0.119,0.1241,0.129,0.1265,0.129,0.1162,0.1083,0.0959,0.078,0.0814,0.0637,0.0591,0.0547,0.0536,0.0675,0.0675,0.0688,0.0689,0.069,0.0691,0,0.0855,0.0896,0.0956,0.103,0.1047,0.1079,0.1153,0.1201,0.1241,0.13,0.1298,0.1314,0.1216,0.1083,0.0919,0.079,0.0645,0.0563,0.0514,0.0464,0.0471,0.0475,0.039,0.0387,0.0385,0.0383,0.0381,0,0.0857,0.0884,0.0958,0.098,0.1002,0.1052,0.1094,0.1172,0.1237,0.1327,0.1367,0.1303,0.1289,0.1042,0.0779,0.0535,0.0578,0.0328,0.0316,0.0479,0.0443,0.0451,0.0458,0.0211,0.0208,0.0206,0.0204,0,0.0851,0.0866,0.091,0.0961,0.0995,0.1063,0.1132,0.12,0.1304,0.1387,0.1491,0.1489,0.1217,0.0954,0.0596,0.0446,0.0371,0.0268,0.0446,0.0306,0.0304,0.027,0.0285,0.0181,0.0184,0.0185,0.0187,0.0187,0.0816,0.0842,0.0889,0.0943,0.0987,0.1075,0.1158,0.1249,0.1387,0.1483,0.1512,0.1461,0.1165,0.0661,0.0415,0.0147,0.0183,0.009,0.0101,0.0113,0.012,0.0115,-0.0043,-0.0043,-0.0042,-0.0041,-0.004,0,0.0781,0.0818,0.0872,0.0948,0.1016,0.1049,0.1193,0.127,0.1432,0.1451,0.1489,0.1185,0.088,0.0602,0.0133,-0.0107,-0.0093,-0.013,-0.0077,-0.0057,-0.0038,-0.0034,-0.0241,-0.0241,-0.0242,-0.0242,0,0,0.075,0.0808,0.0865,0.0965,0.1021,0.1121,0.1222,0.1306,0.1351,0.1385,0.1326,0.1167,0.0869,0.0498,0.0183,-0.0036,0.0026,-0.0063,0.0106,0.022,0.0242,0.0076,0.0102,0,0,0,0,0]}],[{"header":{"parameterUnit":"m.s-1","parameterCategory":2,"la1":30.2991,"la2":30.254,"lo1":-89.0895,"lo2":-89.0444,"dy":0.0017,"dx":0.0017,"nx":28,"ny":28,"refTime":"2024-06-28T21:00:00:Z","depth":"4","parameterNumber":2,"parameterNumberName":"U-component_of_CURRENTS"},"data":[0,0,0,0,0,0,0,0,0,0,0,0,0,0,0,0,0,0,0,0,0,0,0,0,0,0,0,0,0,0,0,0,0,0,0,0,0,0,0,0,0,0,0,0,0,0,0,0,0,0,0,0,0,0,0,0,0,0,0.0461,0.0462,0,0.0554,0.0554,0.0555,0.0683,0.0686,0.0689,0.0691,0.0852,0.0853,0.0855,0,0,0,0,0,0,0,0,0,0,0,0,0,0.0329,0.0331,0.046,0.0462,0.0464,0.0554,0.0554,0.0555,0.0683,0.0686,0.0689,0.0692,0.0851,0.0853,0.0855,0,0,0,0,0,0,0,0,0,0,0,0,0,0.0395,0.0331,0.046,0.0543,0.0552,0.0554,0.0555,0.0555,0.0682,0.0686,0.069,0.0694,0.085,0.0853,0.0856,0.079,0,0,0.0864,0.0865,0,0,0,0,0,0,0,0,0.0391,0.0399,0.0529,0.0537,0.0547,0.0616,0.0568,0.0639,0.0681,0.0626,0.0691,0.0696,0.078,0.0789,0.0788,0.0798,0.0805,0.0864,0.0865,0.0867,0.0867,0,0,0,0,0,0,0,0.0386,0.0395,0.0491,0.0531,0.0542,0.0554,0.0568,0.0581,0.0676,0.0631,0.0642,0.0661,0.0785,0.0785,0.0793,0.0807,0.0864,0.0866,0.0868,0.0869,0.1,0.1001,0,0,0,0,0,0,0.0386,0.0391,0.0488,0.0495,0.0484,0.0554,0.0569,0.0585,0.0674,0.0693,0.0657,0.0667,0.0778,0.079,0.0799,0.0978,0.0867,0.0869,0.0871,0.0998,0.1,0.1002,0,0,0,0,0,0,0.0383,0.0393,0.0485,0.045,0.0464,0.0553,0.0569,0.0585,0.0686,0.0695,0.0715,0.0755,0.0782,0.0795,0.0897,0.0976,0.087,0.0873,0.0996,0.0999,0.1001,0.1174,0,0,0,0,0,0,0.0378,0.0391,0.043,0.045,0.0466,0.0551,0.0566,0.0584,0.0688,0.0704,0.0783,0.0796,0.0786,0.0893,0.09,0.0978,0.0875,0.0993,0.0997,0.1,0.1166,0.1183,0.1197,0,0,0,0,0,0.0373,0.041,0.043,0.0445,0.0506,0.0554,0.0564,0.0635,0.069,0.074,0.0803,0.0799,0.092,0.0898,0.0904,0.0985,0.0991,0.0996,0.1,0.1159,0.1179,0.1196,0,0,0,0,0,0,0.0396,0.0427,0.0451,0.0503,0.0555,0.058,0.0648,0.0686,0.077,0.0825,0.0829,0.0846,0.0957,0.0937,0.0913,0.1026,0.0952,0.0957,0.107,0.1089,0.1104,0.1128,0.0877,0,0,0,0,0,0.0408,0.044,0.0477,0.0531,0.057,0.0623,0.0667,0.072,0.0781,0.0828,0.0894,0.0941,0.0956,0.1005,0.1021,0.1093,0.0995,0.1142,0.1158,0.1171,0.1193,0.1064,0.1069,0.1016,0.1016,0.1016,0,0,0.0433,0.0458,0.0481,0.0538,0.0594,0.0659,0.0664,0.077,0.0846,0.0827,0.0997,0.1009,0.0984,0.1066,0.1113,0.1082,0.1137,0.1177,0.1189,0.1203,0.1069,0.1074,0.1078,0.1019,0.1019,0.1018,0,0,0.0485,0.0533,0.0577,0.0628,0.0724,0.0751,0.0806,0.09,0.0977,0.1108,0.1094,0.1152,0.1246,0.1212,0.1202,0.1303,0.1215,0.1336,0.1453,0.1329,0.1332,0.1333,0.122,0.121,0.1353,0.1353,0.1353,0,0.0528,0.0584,0.0605,0.0672,0.0745,0.0809,0.0903,0.0958,0.1085,0.1143,0.1209,0.1286,0.1296,0.1291,0.1362,0.134,0.1266,0.1391,0.1348,0.1347,0.1345,0.1229,0.1215,0.1362,0.1361,0.136,0.1359,0,0.0584,0.0675,0.0726,0.0819,0.0888,0.0995,0.1069,0.1179,0.1303,0.1347,0.1456,0.1455,0.1502,0.1504,0.1498,0.1491,0.144,0.1373,0.1301,0.1361,0.1234,0.1217,0.1375,0.1371,0.1369,0.1367,0,0,0.0581,0.0734,0.0763,0.0862,0.0996,0.1064,0.1196,0.1305,0.1391,0.1523,0.1604,0.1663,0.1692,0.1679,0.164,0.1564,0.1514,0.1522,0.1511,0.1412,0.1262,0.1248,0.1226,0.1451,0.1449,0.1447,0.118,0,0.0648,0.0793,0.0852,0.1045,0.115,0.1251,0.1354,0.1459,0.1559,0.1648,0.1642,0.1711,0.1739,0.1784,0.1724,0.1553,0.1479,0.1594,0.1218,0.1207,0.1188,0.1209,0.1441,0.1166,0.1162,0.1159,0.1157,0,0.0685,0.0791,0.0984,0.1188,0.1246,0.1377,0.1561,0.1654,0.1729,0.1803,0.1859,0.1852,0.182,0.1813,0.1586,0.1673,0.153,0.1375,0.1358,0.1276,0.1162,0.109,0.1123,0.1126,0.1128,0.1131,0.1133,0,0.0667,0.0888,0.1062,0.1138,0.1357,0.1503,0.1626,0.1742,0.1777,0.1901,0.1901,0.1903,0.1848,0.1712,0.1466,0.1561,0.111,0.1167,0.0992,0.0987,0.1,0.1001,0.0979,0.098,0.098,0.0981,0.0982,0,0.0688,0.0837,0.1107,0.1207,0.1414,0.1577,0.1737,0.1855,0.1918,0.1836,0.1997,0.1832,0.1822,0.1564,0.1425,0.1122,0.1068,0.1021,0.0922,0.1081,0.1094,0.0986,0.0991,0.0971,0.0973,0.0975,0.0977,0,0.0632,0.0804,0.1028,0.1326,0.1422,0.1591,0.1762,0.1777,0.1921,0.1798,0.1825,0.1755,0.1519,0.1386,0.1059,0.1009,0.0737,0.0609,0.0746,0.0655,0.0745,0.0761,0.0551,0.0548,0.0546,0.0544,0.0542,0,0.061,0.0728,0.1075,0.1161,0.1328,0.1543,0.1584,0.1773,0.1692,0.16,0.1431,0.132,0.1231,0.0796,0.0709,0.0522,0.0488,0.0402,0.0713,0.0779,0.0702,0.0722,0.0741,0.0539,0.0538,0.0538,0.0537,0,0.0554,0.0718,0.0863,0.1012,0.1152,0.1239,0.1315,0.1277,0.131,0.1388,0.1113,0.1057,0.0778,0.0688,0.0547,0.0362,0.0539,0.0382,0.0393,0.0685,0.0761,0.0692,0.0714,0.0529,0.0531,0.0531,0.0532,0,0.0504,0.0548,0.0691,0.0844,0.0919,0.0908,0.1028,0.0936,0.095,0.0928,0.0724,0.0642,0.0618,0.0568,0.0313,0.0308,0.0427,0.0491,0.0499,0.0507,0.0634,0.0733,0.0405,0,0,0,0,0,0.0444,0.0414,0.0462,0.0604,0.0641,0.0743,0.0744,0.0819,0.0838,0.0643,0.0761,0.0522,0.0449,0.0365,0.0374,0.0305,0.039,0.0312,0.046,0.0487,0.0496,0.066,0,0,0,0,0,0,0.0369,0.0374,0.0383,0.0333,0.0408,0.0425,0.049,0.054,0.0473,0.0522,0.0477,0.0559,0.0469,0.0474,0.0388,0.0379,0.0479,0.0309,0.031,0.0482,0.049,0.0497,0.0669,0,0,0,0,0]},{"header":{"parameterUnit":"m.s-1","parameterCategory":2,"la1":30.2991,"la2":30.254,"lo1":-89.0895,"lo2":-89.0444,"dy":0.0017,"dx":0.0017,"nx":28,"ny":28,"refTime":"2024-06-28T21:00:00:Z","depth":"4","parameterNumber":3,"parameterNumberName":"V-component_of_CURRENTS"},"data":[0,0,0,0,0,0,0,0,0,0,0,0,0,0,0,0,0,0,0,0,0,0,0,0,0,0,0,0,0,0,0,0,0,0,0,0,0,0,0,0,0,0,0,0,0,0,0,0,0,0,0,0,0,0,0,0,0,0,0.0107,0.0107,0,0.0002,0.0001,-0.0001,-0.0066,-0.0065,-0.0065,-0.0065,-0.0228,-0.0232,-0.0237,0,0,0,0,0,0,0,0,0,0,0,0,0,0.0154,0.0153,0.0107,0.0107,0.0106,0.0003,0.0001,-0.0002,-0.0066,-0.0065,-0.0065,-0.0065,-0.0226,-0.0232,-0.0237,0,0,0,0,0,0,0,0,0,0,0,0,0,0.0094,0.0153,0.0107,0.0066,0.0062,0.0003,0.0,-0.0002,-0.0066,-0.0065,-0.0065,-0.0065,-0.0225,-0.0231,-0.0238,-0.0289,0,0,-0.0259,-0.0262,0,0,0,0,0,0,0,0,0.0097,0.0091,0.0073,0.0069,0.0064,-0.0012,-0.0043,-0.0099,-0.0066,-0.0024,-0.0065,-0.0064,-0.0157,-0.017,-0.0199,-0.0297,-0.0304,-0.026,-0.0264,-0.0267,-0.0269,0,0,0,0,0,0,0,0.0102,0.0095,0.0059,0.0072,0.0067,0.002,0.0012,-0.0054,-0.0098,-0.0028,-0.0031,-0.0032,-0.0161,-0.0192,-0.0203,-0.0306,-0.026,-0.0266,-0.027,-0.0273,-0.0482,-0.0483,0,0,0,0,0,0,0.0133,0.0099,0.0062,0.0056,0.009,0.002,0.001,0.0006,-0.0096,-0.0109,-0.0033,-0.0035,-0.018,-0.0195,-0.0209,-0.0282,-0.0267,-0.0273,-0.0277,-0.048,-0.0482,-0.0483,0,0,0,0,0,0,0.0134,0.013,0.0067,0.0081,0.007,0.002,0.0015,0.0004,-0.0029,-0.0098,-0.0113,-0.0054,-0.0181,-0.0199,-0.0286,-0.0288,-0.0276,-0.0283,-0.0478,-0.0481,-0.0483,-0.0423,0,0,0,0,0,0,0.0135,0.0131,0.0131,0.0083,0.0071,0.0026,0.0015,0.0002,-0.0027,-0.0032,-0.0122,-0.0136,-0.0182,-0.0276,-0.0293,-0.0297,-0.0288,-0.0477,-0.0479,-0.0482,-0.0423,-0.0423,-0.0422,0,0,0,0,0,0.0137,0.0143,0.0131,0.0127,0.0075,0.0026,0.0013,-0.0026,-0.0028,-0.0053,-0.0118,-0.0133,-0.0304,-0.0283,-0.0303,-0.0309,-0.0475,-0.0479,-0.0482,-0.0423,-0.0423,-0.0422,0,0,0,0,0,0,0.0165,0.0136,0.0122,0.0119,0.0074,0.0017,0.0004,-0.0025,-0.0096,-0.0098,-0.0163,-0.0184,-0.0262,-0.0302,-0.0277,-0.038,-0.0388,-0.0395,-0.0337,-0.0337,-0.0337,-0.0286,-0.0294,0,0,0,0,0,0.0173,0.0168,0.0124,0.012,0.0105,0.0052,0.0028,-0.0003,-0.0062,-0.0091,-0.0148,-0.0216,-0.0292,-0.0325,-0.0399,-0.0457,-0.0482,-0.0473,-0.0472,-0.0471,-0.0446,-0.0533,-0.0537,-0.0494,-0.0494,-0.0494,0,0,0.0184,0.0169,0.0166,0.0125,0.0093,0.0056,0.0037,0.0002,-0.0034,-0.0099,-0.0162,-0.0225,-0.0312,-0.0382,-0.0417,-0.0411,-0.0491,-0.0475,-0.0474,-0.0449,-0.0537,-0.0541,-0.0544,-0.0496,-0.0496,-0.0495,0,0,0.02,0.019,0.0185,0.0146,0.0103,0.0064,0.0056,-0.0004,-0.0033,-0.01,-0.0161,-0.0231,-0.0324,-0.0393,-0.0438,-0.0484,-0.0496,-0.0495,-0.044,-0.0526,-0.0529,-0.0532,-0.0531,-0.0535,-0.0482,-0.0482,-0.0482,0,0.0214,0.0205,0.0172,0.0148,0.013,0.0071,0.0051,-0.0003,-0.0086,-0.0104,-0.011,-0.026,-0.0332,-0.0428,-0.0428,-0.0481,-0.0493,-0.043,-0.0522,-0.0526,-0.053,-0.0529,-0.0534,-0.048,-0.048,-0.048,-0.048,0,0.0214,0.0203,0.0199,0.0152,0.0116,0.0094,0.0028,-0.001,-0.0035,-0.0081,-0.016,-0.026,-0.0319,-0.0373,-0.0404,-0.0472,-0.0455,-0.0518,-0.0511,-0.053,-0.0528,-0.0534,-0.0476,-0.0477,-0.0478,-0.0478,0,0,0.026,0.0213,0.0214,0.0208,0.0126,0.0109,0.0047,-0.0009,-0.0019,-0.0104,-0.0132,-0.0252,-0.0256,-0.0307,-0.0371,-0.0447,-0.0478,-0.0461,-0.0467,-0.0435,-0.0588,-0.0513,-0.0512,-0.0549,-0.0551,-0.0552,-0.0558,0,0.0275,0.0266,0.0225,0.0206,0.0194,0.013,0.0099,0.0034,-0.0019,-0.0069,-0.0172,-0.0206,-0.0247,-0.0236,-0.033,-0.0476,-0.0496,-0.0465,-0.0594,-0.0595,-0.051,-0.052,-0.0558,-0.0563,-0.0564,-0.0565,-0.0566,0,0.0282,0.0283,0.0298,0.027,0.0266,0.0275,0.0243,0.0206,0.0103,0.0071,0.0003,-0.008,-0.0186,-0.021,-0.0409,-0.0378,-0.0428,-0.0535,-0.054,-0.0491,-0.0534,-0.0554,-0.0578,-0.0577,-0.0576,-0.0575,-0.0574,0,0.0346,0.0326,0.0366,0.0353,0.0315,0.0363,0.0374,0.0298,0.0279,0.0217,0.0172,0.0027,-0.0034,-0.0174,-0.0343,-0.0361,-0.0568,-0.0639,-0.0606,-0.0599,-0.0688,-0.0685,-0.0714,-0.0714,-0.0714,-0.0714,-0.0714,0,0.0364,0.0389,0.0447,0.0467,0.0559,0.0514,0.0593,0.0562,0.0502,0.0407,0.0323,0.0178,-0.0027,-0.0195,-0.0321,-0.0468,-0.0529,-0.0571,-0.0606,-0.0658,-0.0652,-0.0689,-0.0687,-0.0714,-0.0714,-0.0714,-0.0714,0,0.0394,0.0424,0.0483,0.0545,0.0601,0.0697,0.0775,0.0766,0.0741,0.0601,0.0593,0.0319,0.0101,-0.0074,-0.0333,-0.042,-0.0577,-0.0579,-0.0544,-0.0581,-0.0546,-0.054,-0.0569,-0.0567,-0.0565,-0.0563,-0.0562,0,0.0398,0.0441,0.0582,0.067,0.074,0.0883,0.0931,0.0932,0.0826,0.0604,0.0446,0.0294,0.0092,-0.0165,-0.0355,-0.0487,-0.0508,-0.0522,-0.0592,-0.0505,-0.0536,-0.0534,-0.0531,-0.0558,-0.0558,-0.0557,-0.0557,0,0.0396,0.0484,0.0534,0.0722,0.0851,0.0915,0.0944,0.0905,0.075,0.0708,0.0375,0.0236,-0.0005,-0.0212,-0.0225,-0.0378,-0.0512,-0.0503,-0.051,-0.0575,-0.0493,-0.0525,-0.0525,-0.055,-0.0551,-0.0552,-0.0552,0,0.0419,0.0453,0.0554,0.0733,0.0856,0.0861,0.092,0.0768,0.0715,0.0429,0.0294,0.009,-0.0049,-0.0159,-0.0271,-0.0299,-0.0351,-0.0383,-0.0397,-0.0406,-0.0363,-0.0235,-0.0225,0,0,0,0,0,0.0431,0.0448,0.0546,0.0682,0.0791,0.0877,0.0811,0.0793,0.0634,0.0424,0.0382,0.0161,-0.0,-0.0129,-0.0138,-0.0254,-0.0354,-0.0271,-0.0395,-0.0512,-0.052,-0.0492,0,0,0,0,0,0,0.042,0.0485,0.0498,0.0598,0.071,0.0761,0.0756,0.0664,0.0511,0.0376,0.0297,0.0207,0.0062,0.0072,-0.0106,-0.0137,-0.0216,-0.0355,-0.0356,-0.0507,-0.0514,-0.0521,-0.0495,0,0,0,0,0]}]]